Time,TemperatureF,DewpointF,PressureIn,WindDirection,WindDirectionDegrees,WindSpeedMPH,WindSpeedGustMPH,Humidity,HourlyPrecipIn,Conditions,Clouds,dailyrainin,SoftwareType,DateUTC
2013-06-01 00:00:00,66.1,56.4,30.03,NW,309,0.0,0.0,71,0.00,,---,0.00,VWS V14.01,2013-06-01 04:00:00,
2013-06-01 00:01:00,66.1,56.4,30.03,NW,309,0.0,0.0,71,0.00,,---,0.00,VWS V14.01,2013-06-01 04:01:00,
2013-06-01 00:06:00,66.1,56.4,30.03,NW,309,0.0,0.0,71,0.00,,---,0.00,VWS V14.01,2013-06-01 04:06:00,
2013-06-01 00:11:00,65.9,56.6,30.03,NW,309,0.0,0.0,72,0.00,,---,0.00,VWS V14.01,2013-06-01 04:11:00,
2013-06-01 00:16:00,65.5,57.0,30.03,NW,309,0.0,0.0,74,0.00,,---,0.00,VWS V14.01,2013-06-01 04:16:00,
2013-06-01 00:21:00,64.8,57.1,30.03,NW,309,0.0,0.0,76,0.00,,---,0.00,VWS V14.01,2013-06-01 04:21:00,
2013-06-01 00:26:00,64.6,57.6,30.03,NW,310,0.0,0.0,78,0.00,,---,0.00,VWS V14.01,2013-06-01 04:26:00,
2013-06-01 00:31:00,64.6,57.6,30.03,NW,315,0.0,0.0,78,0.00,,---,0.00,VWS V14.01,2013-06-01 04:31:00,
2013-06-01 00:36:00,64.6,57.3,30.03,WNW,288,0.0,0.0,77,0.00,,---,0.00,VWS V14.01,2013-06-01 04:36:00,
2013-06-01 00:41:00,64.6,57.3,30.03,West,279,0.0,0.0,77,0.00,,---,0.00,VWS V14.01,2013-06-01 04:41:00,
2013-06-01 00:46:00,64.6,57.3,30.03,NNW,332,0.0,0.0,77,0.00,,---,0.00,VWS V14.01,2013-06-01 04:46:00,
2013-06-01 00:51:00,64.8,57.5,30.03,NNW,332,0.0,0.0,77,0.00,,---,0.00,VWS V14.01,2013-06-01 04:51:00,
2013-06-01 00:56:00,64.8,57.5,30.03,NW,321,0.0,0.0,77,0.00,,---,0.00,VWS V14.01,2013-06-01 04:56:00,
2013-06-01 01:01:00,64.8,57.5,30.03,NW,321,0.0,0.0,77,0.00,,---,0.00,VWS V14.01,2013-06-01 05:01:00,
2013-06-01 01:06:00,64.8,57.5,30.03,SSW,211,0.0,0.0,77,0.00,,---,0.00,VWS V14.01,2013-06-01 05:06:00,
2013-06-01 01:11:00,65.0,57.6,30.03,SSW,211,0.0,0.0,77,0.00,,---,0.00,VWS V14.01,2013-06-01 05:11:00,
2013-06-01 01:16:00,65.0,57.6,30.03,SSW,211,0.0,0.0,77,0.00,,---,0.00,VWS V14.01,2013-06-01 05:16:00,
2013-06-01 01:21:00,64.8,57.5,30.03,SSW,211,0.0,0.0,77,0.00,,---,0.00,VWS V14.01,2013-06-01 05:21:00,
2013-06-01 01:26:00,64.8,57.8,30.03,SSW,211,0.0,0.0,78,0.00,,---,0.00,VWS V14.01,2013-06-01 05:26:00,
2013-06-01 01:31:00,64.6,58.0,30.03,SSW,211,0.0,0.0,79,0.00,,---,0.00,VWS V14.01,2013-06-01 05:31:00,
2013-06-01 01:36:00,64.6,58.0,30.03,SSW,211,0.0,0.0,79,0.00,,---,0.00,VWS V14.01,2013-06-01 05:36:00,
2013-06-01 01:41:00,64.5,58.5,30.03,SSW,211,0.0,0.0,81,0.00,,---,0.00,VWS V14.01,2013-06-01 05:41:00,
2013-06-01 01:46:00,64.5,58.5,30.03,SSW,211,0.0,0.0,81,0.00,,---,0.00,VWS V14.01,2013-06-01 05:46:00,
2013-06-01 01:51:00,64.3,58.7,30.03,SSW,211,0.0,0.0,82,0.00,,---,0.00,VWS V14.01,2013-06-01 05:51:00,
2013-06-01 01:56:00,64.1,58.8,30.03,SSW,211,0.0,0.0,83,0.00,,---,0.00,VWS V14.01,2013-06-01 05:56:00,
2013-06-01 02:01:00,63.9,58.7,30.03,NW,305,0.0,0.0,83,0.00,,---,0.00,VWS V14.01,2013-06-01 06:01:00,
2013-06-01 02:06:00,63.6,58.3,30.03,NW,305,0.0,0.0,83,0.00,,---,0.00,VWS V14.01,2013-06-01 06:06:00,
2013-06-01 02:11:00,63.4,58.5,30.03,NW,305,0.0,0.0,84,0.00,,---,0.00,VWS V14.01,2013-06-01 06:11:00,
2013-06-01 02:16:00,63.4,58.8,30.03,NW,305,0.0,0.0,85,0.00,,---,0.00,VWS V14.01,2013-06-01 06:16:00,
2013-06-01 02:21:00,63.2,58.6,30.01,NW,308,0.0,0.0,85,0.00,,---,0.00,VWS V14.01,2013-06-01 06:21:00,
2013-06-01 02:26:00,63.0,58.5,30.01,NW,308,0.0,0.0,85,0.00,,---,0.00,VWS V14.01,2013-06-01 06:26:00,
2013-06-01 02:31:00,62.8,58.3,30.01,West,281,0.0,0.0,85,0.00,,---,0.00,VWS V14.01,2013-06-01 06:31:00,
2013-06-01 02:36:00,62.8,58.9,30.01,West,281,0.0,0.0,87,0.00,,---,0.00,VWS V14.01,2013-06-01 06:36:00,
2013-06-01 02:41:00,63.0,59.1,30.01,West,281,0.0,0.0,87,0.00,,---,0.00,VWS V14.01,2013-06-01 06:41:00,
2013-06-01 02:45:00,63.2,59.3,30.01,West,281,0.0,0.0,87,0.00,,---,0.00,VWS V14.01,2013-06-01 06:45:00,
2013-06-01 02:50:00,63.2,59.3,30.01,West,281,0.0,0.0,87,0.00,,---,0.00,VWS V14.01,2013-06-01 06:50:00,
2013-06-01 02:55:00,62.8,58.9,30.01,NW,304,0.0,0.0,87,0.00,,---,0.00,VWS V14.01,2013-06-01 06:55:00,
2013-06-01 03:00:00,62.8,59.2,30.01,West,272,0.0,0.0,88,0.00,,---,0.00,VWS V14.01,2013-06-01 07:00:00,
2013-06-01 03:05:00,62.8,59.5,30.01,West,272,0.0,0.0,89,0.00,,---,0.00,VWS V14.01,2013-06-01 07:05:00,
2013-06-01 03:10:00,62.8,60.2,30.01,West,272,0.0,0.0,91,0.00,,---,0.00,VWS V14.01,2013-06-01 07:10:00,
2013-06-01 03:15:00,63.0,60.4,30.01,West,272,0.0,0.0,91,0.00,,---,0.00,VWS V14.01,2013-06-01 07:15:00,
2013-06-01 03:20:00,63.2,60.8,30.01,West,272,0.0,0.0,92,0.00,,---,0.00,VWS V14.01,2013-06-01 07:20:00,
2013-06-01 03:25:00,63.0,60.4,30.01,West,272,0.0,0.0,91,0.00,,---,0.00,VWS V14.01,2013-06-01 07:25:00,
2013-06-01 03:30:00,62.8,60.2,30.01,West,272,0.0,0.0,91,0.00,,---,0.00,VWS V14.01,2013-06-01 07:30:00,
2013-06-01 03:35:00,62.8,60.2,30.01,West,272,0.0,0.0,91,0.00,,---,0.00,VWS V14.01,2013-06-01 07:35:00,
2013-06-01 03:40:00,62.7,60.3,30.01,West,272,0.0,0.0,92,0.00,,---,0.00,VWS V14.01,2013-06-01 07:40:00,
2013-06-01 03:45:00,62.8,60.5,30.01,West,272,0.0,0.0,92,0.00,,---,0.00,VWS V14.01,2013-06-01 07:45:00,
2013-06-01 03:50:00,62.8,60.5,30.01,West,272,0.0,0.0,92,0.00,,---,0.00,VWS V14.01,2013-06-01 07:50:00,
2013-06-01 03:55:00,62.8,60.8,30.01,West,272,0.0,0.0,93,0.00,,---,0.00,VWS V14.01,2013-06-01 07:55:00,
2013-06-01 04:00:00,62.7,60.9,30.01,West,272,0.0,0.0,94,0.00,,---,0.00,VWS V14.01,2013-06-01 08:00:00,
2013-06-01 04:05:00,62.8,61.4,30.01,West,272,0.0,0.0,95,0.00,,---,0.00,VWS V14.01,2013-06-01 08:05:00,
2013-06-01 04:10:00,62.7,60.9,30.01,West,272,0.0,0.0,94,0.00,,---,0.00,VWS V14.01,2013-06-01 08:10:00,
2013-06-01 04:15:00,62.7,60.9,30.01,West,272,0.0,0.0,94,0.00,,---,0.00,VWS V14.01,2013-06-01 08:15:00,
2013-06-01 04:20:00,62.5,60.7,30.01,WNW,288,0.0,4.5,94,0.00,,---,0.00,VWS V14.01,2013-06-01 08:20:00,
2013-06-01 04:25:00,62.5,60.7,30.01,NW,309,0.0,2.7,94,0.00,,---,0.00,VWS V14.01,2013-06-01 08:25:00,
2013-06-01 04:30:00,62.5,61.0,30.01,NNW,331,4.5,4.5,95,0.00,,---,0.00,VWS V14.01,2013-06-01 08:30:00,
2013-06-01 04:35:00,62.7,61.2,30.01,West,280,4.5,6.9,95,0.00,,---,0.00,VWS V14.01,2013-06-01 08:35:00,
2013-06-01 04:40:00,62.7,61.5,30.01,WNW,289,4.9,5.4,96,0.00,,---,0.00,VWS V14.01,2013-06-01 08:40:00,
2013-06-01 04:45:00,62.8,61.4,30.01,West,278,0.0,3.1,95,0.00,,---,0.00,VWS V14.01,2013-06-01 08:45:00,
2013-06-01 04:50:00,62.7,61.2,30.01,West,278,0.0,0.0,95,0.00,,---,0.00,VWS V14.01,2013-06-01 08:50:00,
2013-06-01 04:55:00,62.5,61.0,30.01,West,278,0.0,0.0,95,0.00,,---,0.00,VWS V14.01,2013-06-01 08:55:00,
2013-06-01 05:00:00,62.3,60.8,30.01,West,278,0.0,0.0,95,0.00,,---,0.00,VWS V14.01,2013-06-01 09:00:00,
2013-06-01 05:05:00,62.1,60.7,30.01,West,278,0.0,0.0,95,0.00,,---,0.00,VWS V14.01,2013-06-01 09:05:00,
2013-06-01 05:10:00,61.9,60.5,30.01,NW,305,0.0,0.0,95,0.00,,---,0.00,VWS V14.01,2013-06-01 09:10:00,
2013-06-01 05:15:00,61.8,60.3,30.01,NW,310,0.0,0.0,95,0.00,,---,0.00,VWS V14.01,2013-06-01 09:15:00,
2013-06-01 05:20:00,61.6,60.1,30.01,NNW,330,3.1,3.1,95,0.00,,---,0.00,VWS V14.01,2013-06-01 09:20:00,
2013-06-01 05:25:00,61.4,60.0,30.01,NW,319,0.0,0.0,95,0.00,,---,0.00,VWS V14.01,2013-06-01 09:25:00,
2013-06-01 05:30:00,61.2,59.8,30.01,NW,319,0.0,0.0,95,0.00,,---,0.00,VWS V14.01,2013-06-01 09:30:00,
2013-06-01 05:35:00,61.0,59.9,30.03,NW,319,0.0,0.0,96,0.00,,---,0.00,VWS V14.01,2013-06-01 09:35:00,
2013-06-01 05:40:00,60.9,60.0,30.03,NW,319,0.0,0.0,97,0.00,,---,0.00,VWS V14.01,2013-06-01 09:40:00,
2013-06-01 05:45:00,60.9,60.0,30.03,NW,319,0.0,0.0,97,0.00,,---,0.00,VWS V14.01,2013-06-01 09:45:00,
2013-06-01 05:50:00,60.7,60.1,30.03,NW,319,0.0,0.0,98,0.00,,---,0.00,VWS V14.01,2013-06-01 09:50:00,
2013-06-01 05:55:00,60.7,60.4,30.03,NW,319,0.0,0.0,99,0.00,,---,0.00,VWS V14.01,2013-06-01 09:55:00,
2013-06-01 06:00:00,60.9,60.6,30.03,NW,319,0.0,0.0,99,0.00,,---,0.00,VWS V14.01,2013-06-01 10:00:00,
2013-06-01 06:05:00,60.9,60.9,30.03,SSW,213,0.0,0.0,100,0.00,,---,0.00,VWS V14.01,2013-06-01 10:05:00,
2013-06-01 06:10:00,61.0,61.0,30.03,SE,134,3.1,4.0,100,0.00,,---,0.00,VWS V14.01,2013-06-01 10:10:00,
2013-06-01 06:15:00,61.4,61.4,30.03,ESE,111,0.0,0.0,100,0.00,,---,0.00,VWS V14.01,2013-06-01 10:15:00,
2013-06-01 06:20:00,61.8,61.8,30.03,ENE,57,0.0,0.0,100,0.00,,---,0.00,VWS V14.01,2013-06-01 10:20:00,
2013-06-01 06:25:00,61.8,61.8,30.03,ENE,57,0.0,0.0,100,0.00,,---,0.00,VWS V14.01,2013-06-01 10:25:00,
2013-06-01 06:30:00,61.9,61.9,30.03,NE,52,0.0,0.0,100,0.00,,---,0.00,VWS V14.01,2013-06-01 10:30:00,
2013-06-01 06:35:00,61.9,61.9,30.03,ENE,67,0.0,0.0,100,0.00,,---,0.00,VWS V14.01,2013-06-01 10:35:00,
2013-06-01 06:40:00,62.1,62.1,30.03,NNE,32,0.0,0.0,100,0.00,,---,0.00,VWS V14.01,2013-06-01 10:40:00,
2013-06-01 06:45:00,62.3,62.3,30.03,NE,56,3.1,4.0,100,0.00,,---,0.00,VWS V14.01,2013-06-01 10:45:00,
2013-06-01 06:50:00,62.8,62.8,30.03,NE,55,0.0,0.0,100,0.00,,---,0.00,VWS V14.01,2013-06-01 10:50:00,
2013-06-01 06:55:00,62.8,62.6,30.03,NE,55,0.0,0.0,99,0.00,,---,0.00,VWS V14.01,2013-06-01 10:55:00,
2013-06-01 07:00:00,63.0,62.5,30.03,ENE,66,0.0,0.0,98,0.00,,---,0.00,VWS V14.01,2013-06-01 11:00:00,
2013-06-01 07:05:00,63.0,62.2,30.03,NE,53,0.0,0.0,97,0.00,,---,0.00,VWS V14.01,2013-06-01 11:05:00,
2013-06-01 07:10:00,63.4,62.5,30.03,East,79,0.0,0.0,97,0.00,,---,0.00,VWS V14.01,2013-06-01 11:10:00,
2013-06-01 07:15:00,63.7,62.6,30.03,ENE,59,0.0,0.0,96,0.00,,---,0.00,VWS V14.01,2013-06-01 11:15:00,
2013-06-01 07:20:00,63.9,62.5,30.03,East,87,0.0,0.0,95,0.00,,---,0.00,VWS V14.01,2013-06-01 11:20:00,
2013-06-01 07:25:00,64.1,62.3,30.03,ESE,109,0.0,0.0,94,0.00,,---,0.00,VWS V14.01,2013-06-01 11:25:00,
2013-06-01 07:30:00,64.5,62.7,30.03,NE,44,3.6,4.5,94,0.00,,---,0.00,VWS V14.01,2013-06-01 11:30:00,
2013-06-01 07:35:00,64.8,62.5,30.03,East,87,0.0,2.7,92,0.00,,---,0.00,VWS V14.01,2013-06-01 11:35:00,
2013-06-01 07:40:00,65.0,62.0,30.03,ESE,107,0.0,3.1,90,0.00,,---,0.00,VWS V14.01,2013-06-01 11:40:00,
2013-06-01 07:45:00,65.5,62.2,30.03,ENE,72,0.0,3.1,89,0.00,,---,0.00,VWS V14.01,2013-06-01 11:45:00,
2013-06-01 07:50:00,66.1,62.1,30.03,East,91,0.0,0.0,87,0.00,,---,0.00,VWS V14.01,2013-06-01 11:50:00,
2013-06-01 07:55:00,66.4,61.5,30.03,ENE,62,0.0,0.0,84,0.00,,---,0.00,VWS V14.01,2013-06-01 11:55:00,
2013-06-01 08:00:00,66.8,60.4,30.03,NE,53,3.1,3.1,80,0.00,,---,0.00,VWS V14.01,2013-06-01 12:00:00,
2013-06-01 08:05:00,68.4,60.9,30.03,ENE,67,0.0,0.0,77,0.00,,---,0.00,VWS V14.01,2013-06-01 12:05:00,
2013-06-01 08:10:00,68.2,60.4,30.03,ESE,108,0.0,0.0,76,0.00,,---,0.00,VWS V14.01,2013-06-01 12:10:00,
2013-06-01 08:15:00,69.7,60.3,30.03,East,80,0.0,0.0,72,0.00,,---,0.00,VWS V14.01,2013-06-01 12:15:00,
2013-06-01 08:20:00,71.3,61.0,30.03,East,94,0.0,0.0,70,0.00,,---,0.35,VWS V14.01,2013-06-01 12:20:00,
2013-06-01 08:25:00,72.0,60.5,30.03,East,94,0.0,0.0,67,0.00,,---,0.00,VWS V14.01,2013-06-01 12:25:00,
2013-06-01 08:30:00,72.0,60.0,30.03,NE,44,0.0,0.0,66,0.00,,---,0.00,VWS V14.01,2013-06-01 12:30:00,
2013-06-01 08:35:00,74.0,61.5,30.03,WNW,282,0.0,0.0,65,0.00,,---,0.00,VWS V14.01,2013-06-01 12:35:00,
2013-06-01 08:40:00,73.8,60.0,30.03,NE,50,0.0,0.0,62,0.00,,---,0.00,VWS V14.01,2013-06-01 12:40:00,
2013-06-01 08:45:00,74.7,60.4,30.03,NNE,21,0.0,0.0,61,0.00,,---,0.00,VWS V14.01,2013-06-01 12:45:00,
2013-06-01 08:50:00,76.0,61.6,30.03,North,351,0.0,0.0,61,0.00,,---,0.00,VWS V14.01,2013-06-01 12:50:00,
2013-06-01 08:55:00,76.0,61.1,30.03,North,8,0.0,0.0,60,0.00,,---,0.00,VWS V14.01,2013-06-01 12:55:00,
2013-06-01 09:00:00,77.1,61.7,30.03,ENE,69,0.0,0.0,59,0.00,,---,0.00,VWS V14.01,2013-06-01 13:00:00,
2013-06-01 09:05:00,76.3,60.5,30.03,East,96,0.0,0.0,58,0.00,,---,0.00,VWS V14.01,2013-06-01 13:05:00,
2013-06-01 09:10:00,76.9,61.0,30.03,SW,218,4.5,5.4,58,0.00,,---,0.00,VWS V14.01,2013-06-01 13:10:00,
2013-06-01 09:15:00,79.2,60.6,30.03,South,171,0.0,3.1,53,0.00,,---,0.00,VWS V14.01,2013-06-01 13:15:00,
2013-06-01 09:20:00,78.7,60.1,30.03,South,169,4.0,4.5,53,0.00,,---,0.00,VWS V14.01,2013-06-01 13:20:00,
2013-06-01 09:25:00,79.6,62.5,30.03,East,83,3.1,4.0,56,0.00,,---,0.00,VWS V14.01,2013-06-01 13:25:00,
2013-06-01 09:30:00,80.3,60.5,30.03,WSW,247,0.0,4.0,51,0.00,,---,0.00,VWS V14.01,2013-06-01 13:30:00,
2013-06-01 09:35:00,81.0,61.2,30.03,SSW,212,0.0,0.0,51,0.00,,---,0.00,VWS V14.01,2013-06-01 13:35:00,
2013-06-01 09:40:00,80.3,60.5,30.03,SSW,201,0.0,0.0,51,0.00,,---,0.00,VWS V14.01,2013-06-01 13:40:00,
2013-06-01 09:45:00,79.8,60.6,30.03,SW,233,3.6,3.6,52,0.00,,---,0.00,VWS V14.01,2013-06-01 13:45:00,
2013-06-01 09:50:00,79.0,59.9,30.01,South,187,0.0,0.0,52,0.00,,---,0.00,VWS V14.01,2013-06-01 13:50:00,
2013-06-01 09:55:00,80.8,62.7,30.01,SSE,155,0.0,3.6,54,0.00,,---,0.00,VWS V14.01,2013-06-01 13:55:00,
2013-06-01 10:00:00,81.7,63.5,30.01,SSE,166,0.0,0.0,54,0.00,,---,0.00,VWS V14.01,2013-06-01 14:00:00,
2013-06-01 10:05:00,79.4,59.7,30.03,ESE,120,0.0,2.7,51,0.00,,---,0.00,VWS V14.01,2013-06-01 14:05:00,
2013-06-01 10:10:00,79.4,61.3,30.03,SW,234,0.0,0.0,54,0.00,,---,0.00,VWS V14.01,2013-06-01 14:10:00,
2013-06-01 10:15:00,79.9,61.3,30.03,SSE,159,0.0,0.0,53,0.00,,---,0.00,VWS V14.01,2013-06-01 14:15:00,
2013-06-01 10:20:00,79.6,61.0,30.03,ESE,106,2.7,2.7,53,0.00,,---,0.00,VWS V14.01,2013-06-01 14:20:00,
2013-06-01 10:25:00,80.1,62.5,30.03,South,187,3.6,4.5,55,0.00,,---,0.00,VWS V14.01,2013-06-01 14:25:00,
2013-06-01 10:30:00,80.7,60.9,30.03,SSE,157,0.0,2.7,51,0.00,,---,0.00,VWS V14.01,2013-06-01 14:30:00,
2013-06-01 10:35:00,78.3,59.8,30.01,ESE,104,0.0,0.0,53,0.00,,---,0.00,VWS V14.01,2013-06-01 14:35:00,
2013-06-01 10:40:00,78.3,60.8,30.01,ESE,121,0.0,2.7,55,0.00,,---,0.00,VWS V14.01,2013-06-01 14:40:00,
2013-06-01 10:45:00,79.0,61.0,30.01,NE,48,3.1,4.0,54,0.00,,---,0.00,VWS V14.01,2013-06-01 14:45:00,
2013-06-01 10:50:00,82.3,62.4,30.01,SE,133,0.0,2.7,51,0.00,,---,0.00,VWS V14.01,2013-06-01 14:50:00,
2013-06-01 10:55:00,83.9,62.7,30.01,ESE,121,0.0,0.0,49,0.00,,---,0.00,VWS V14.01,2013-06-01 14:55:00,
2013-06-01 11:00:00,82.1,62.2,30.01,SSE,168,0.0,0.0,51,0.00,,---,0.00,VWS V14.01,2013-06-01 15:00:00,
2013-06-01 11:05:00,83.2,62.0,30.01,South,171,3.1,3.6,49,0.00,,---,0.00,VWS V14.01,2013-06-01 15:05:00,
2013-06-01 11:10:00,84.6,63.4,30.01,WSW,246,6.7,6.7,49,0.00,,---,0.00,VWS V14.01,2013-06-01 15:10:00,
2013-06-01 11:15:00,85.5,63.6,30.01,South,184,0.0,4.0,48,0.00,,---,0.00,VWS V14.01,2013-06-01 15:15:00,
2013-06-01 11:20:00,87.0,64.3,30.01,WSW,254,0.0,4.9,47,0.00,,---,0.00,VWS V14.01,2013-06-01 15:20:00,
2013-06-01 11:25:00,88.2,65.5,30.01,South,184,4.9,5.8,47,0.00,,---,0.00,VWS V14.01,2013-06-01 15:25:00,
2013-06-01 11:30:00,86.1,63.5,30.01,South,185,0.0,4.9,47,0.00,,---,0.00,VWS V14.01,2013-06-01 15:30:00,
2013-06-01 11:35:00,86.2,64.3,30.01,SE,135,0.0,3.6,48,0.00,,---,0.00,VWS V14.01,2013-06-01 15:35:00,
2013-06-01 11:40:00,87.1,64.5,30.01,SW,214,0.0,0.0,47,0.00,,---,0.00,VWS V14.01,2013-06-01 15:40:00,
2013-06-01 11:45:00,84.6,62.8,30.01,ESE,108,3.6,6.3,48,0.00,,---,0.00,VWS V14.01,2013-06-01 15:45:00,
2013-06-01 11:50:00,87.0,64.3,30.01,West,270,3.1,3.6,47,0.00,,---,0.00,VWS V14.01,2013-06-01 15:50:00,
2013-06-01 11:55:00,85.5,63.6,30.01,South,191,0.0,4.9,48,0.00,,---,0.00,VWS V14.01,2013-06-01 15:55:00,
2013-06-01 12:00:00,87.3,64.6,30.01,South,171,0.0,3.1,47,0.00,,---,0.00,VWS V14.01,2013-06-01 16:00:00,
2013-06-01 12:05:00,87.3,64.6,29.98,ESE,116,0.0,2.7,47,0.00,,---,0.00,VWS V14.01,2013-06-01 16:05:00,
2013-06-01 12:10:00,86.2,63.7,29.98,SSE,167,3.6,4.0,47,0.00,,---,0.00,VWS V14.01,2013-06-01 16:10:00,
2013-06-01 12:15:00,85.2,63.3,29.98,SE,146,4.5,4.9,48,0.00,,---,0.00,VWS V14.01,2013-06-01 16:15:00,
2013-06-01 12:20:00,88.2,63.6,30.01,SSE,158,0.0,0.0,44,0.00,,---,0.00,VWS V14.01,2013-06-01 16:20:00,
2013-06-01 12:25:00,89.8,65.0,30.01,SSW,194,2.7,2.7,44,0.00,,---,0.00,VWS V14.01,2013-06-01 16:25:00,
2013-06-01 12:30:00,85.9,63.3,30.01,ESE,103,0.0,3.6,47,0.00,,---,0.00,VWS V14.01,2013-06-01 16:30:00,
2013-06-01 12:35:00,87.1,63.2,29.98,WSW,243,0.0,0.0,45,0.00,,---,0.00,VWS V14.01,2013-06-01 16:35:00,
2013-06-01 12:40:00,87.1,64.5,29.98,SW,217,3.1,3.6,47,0.00,,---,0.00,VWS V14.01,2013-06-01 16:40:00,
2013-06-01 12:45:00,87.0,63.1,29.98,East,93,3.6,5.4,45,0.00,,---,0.00,VWS V14.01,2013-06-01 16:45:00,
2013-06-01 12:50:00,87.9,63.2,29.98,ENE,58,0.0,0.0,44,0.00,,---,0.00,VWS V14.01,2013-06-01 16:50:00,
2013-06-01 12:55:00,87.3,63.4,29.98,East,91,0.0,4.0,45,0.00,,---,0.00,VWS V14.01,2013-06-01 16:55:00,
2013-06-01 13:00:00,86.2,63.7,29.98,ENE,64,2.7,5.4,47,0.00,,---,0.00,VWS V14.01,2013-06-01 17:00:00,
2013-06-01 13:05:00,85.7,61.9,29.98,East,91,0.0,0.0,45,0.00,,---,0.00,VWS V14.01,2013-06-01 17:05:00,
2013-06-01 13:10:00,87.5,64.8,29.98,ESE,116,3.6,4.0,47,0.00,,---,0.00,VWS V14.01,2013-06-01 17:10:00,
2013-06-01 13:15:00,88.6,65.8,29.98,WSW,258,4.5,4.5,47,0.00,,---,0.00,VWS V14.01,2013-06-01 17:15:00,
2013-06-01 13:20:00,90.4,65.5,29.98,SSE,167,0.0,0.0,44,0.00,,---,0.00,VWS V14.01,2013-06-01 17:20:00,
2013-06-01 13:25:00,92.5,67.5,29.98,WNW,298,5.4,5.8,44,0.00,,---,0.00,VWS V14.01,2013-06-01 17:25:00,
2013-06-01 13:30:00,92.2,65.1,29.98,NNW,342,0.0,2.7,41,0.00,,---,0.00,VWS V14.01,2013-06-01 17:30:00,
2013-06-01 13:35:00,90.7,65.8,29.98,NE,49,0.0,0.0,44,0.00,,---,0.00,VWS V14.01,2013-06-01 17:35:00,
2013-06-01 13:40:00,89.7,62.9,29.98,East,86,0.0,0.0,41,0.00,,---,0.00,VWS V14.01,2013-06-01 17:40:00,
2013-06-01 13:45:00,87.7,63.1,29.98,ESE,102,0.0,0.0,44,0.00,,---,0.00,VWS V14.01,2013-06-01 17:45:00,
2013-06-01 13:50:00,85.7,61.9,29.98,East,79,0.0,0.0,45,0.00,,---,0.00,VWS V14.01,2013-06-01 17:50:00,
2013-06-01 13:55:00,85.9,63.3,29.98,NE,44,0.0,0.0,47,0.00,,---,0.00,VWS V14.01,2013-06-01 17:55:00,
2013-06-01 14:00:00,88.0,63.4,29.98,WSW,248,0.0,0.0,44,0.00,,---,0.00,VWS V14.01,2013-06-01 18:00:00,
2013-06-01 14:05:00,90.2,66.6,29.98,SW,227,0.0,0.0,46,0.00,,---,0.00,VWS V14.01,2013-06-01 18:05:00,
2013-06-01 14:10:00,92.2,65.1,29.95,WSW,249,6.3,8.7,41,0.00,,---,0.00,VWS V14.01,2013-06-01 18:10:00,
2013-06-01 14:15:00,93.1,65.9,29.95,ESE,118,7.4,8.7,41,0.00,,---,0.00,VWS V14.01,2013-06-01 18:15:00,
2013-06-01 14:20:00,94.0,66.7,29.95,WSW,247,5.8,6.3,41,0.00,,---,0.00,VWS V14.01,2013-06-01 18:20:00,
2013-06-01 14:25:00,93.1,65.9,29.95,West,263,4.9,8.3,41,0.00,,---,0.00,VWS V14.01,2013-06-01 18:25:00,
2013-06-01 14:30:00,92.0,64.9,29.95,WSW,242,9.6,11.0,41,0.00,,---,0.00,VWS V14.01,2013-06-01 18:30:00,
2013-06-01 14:35:00,88.8,62.7,29.95,WSW,248,8.3,11.0,42,0.00,,---,0.00,VWS V14.01,2013-06-01 18:35:00,
2013-06-01 14:40:00,87.5,61.6,29.95,WSW,238,5.4,9.2,42,0.00,,---,0.00,VWS V14.01,2013-06-01 18:40:00,
2013-06-01 14:45:00,87.0,61.1,29.95,WSW,247,3.6,4.5,42,0.00,,---,0.00,VWS V14.01,2013-06-01 18:45:00,
2013-06-01 14:50:00,89.5,62.7,29.95,WSW,249,7.8,10.1,41,0.00,,---,0.00,VWS V14.01,2013-06-01 18:50:00,
2013-06-01 14:55:00,92.2,65.1,29.95,West,274,8.7,12.5,41,0.00,,---,0.00,VWS V14.01,2013-06-01 18:55:00,
2013-06-01 15:00:00,92.5,65.4,29.95,SW,231,4.9,9.2,41,0.00,,---,0.00,VWS V14.01,2013-06-01 19:00:00,
2013-06-01 15:05:00,92.7,65.6,29.95,SW,236,6.7,8.3,41,0.00,,---,0.00,VWS V14.01,2013-06-01 19:05:00,
2013-06-01 15:10:00,93.6,66.4,29.95,West,272,6.7,6.9,41,0.00,,---,0.00,VWS V14.01,2013-06-01 19:10:00,
2013-06-01 15:15:00,91.3,64.3,29.95,South,190,6.9,7.8,41,0.00,,---,0.00,VWS V14.01,2013-06-01 19:15:00,
2013-06-01 15:20:00,91.1,64.1,29.95,SW,224,4.9,8.7,41,0.00,,---,0.00,VWS V14.01,2013-06-01 19:20:00,
2013-06-01 15:25:00,92.4,65.3,29.95,West,275,7.8,7.8,41,0.00,,---,0.00,VWS V14.01,2013-06-01 19:25:00,
2013-06-01 15:30:00,90.7,63.8,29.95,South,190,8.3,11.0,41,0.00,,---,0.00,VWS V14.01,2013-06-01 19:30:00,
2013-06-01 15:35:00,91.3,64.3,29.95,SSE,151,4.9,4.9,41,0.00,,---,0.00,VWS V14.01,2013-06-01 19:35:00,
2013-06-01 15:40:00,90.7,63.8,29.95,West,269,14.8,15.2,41,0.00,,---,0.00,VWS V14.01,2013-06-01 19:40:00,
2013-06-01 15:45:00,90.0,63.2,29.95,WSW,254,6.7,6.7,41,0.00,,---,0.00,VWS V14.01,2013-06-01 19:45:00,
2013-06-01 15:50:00,89.1,63.1,29.95,WSW,251,3.6,8.3,42,0.00,,---,0.00,VWS V14.01,2013-06-01 19:50:00,
2013-06-01 15:55:00,90.7,63.8,29.95,WSW,252,4.9,4.9,41,0.00,,---,0.00,VWS V14.01,2013-06-01 19:55:00,
2013-06-01 16:00:00,90.7,63.8,29.95,West,262,4.9,7.8,41,0.00,,---,0.00,VWS V14.01,2013-06-01 20:00:00,
2013-06-01 16:05:00,89.8,63.0,29.92,ENE,66,4.5,4.5,41,0.00,,---,0.00,VWS V14.01,2013-06-01 20:05:00,
2013-06-01 16:10:00,87.9,61.9,29.92,SSW,209,7.8,7.8,42,0.00,,---,0.00,VWS V14.01,2013-06-01 20:10:00,
2013-06-01 16:15:00,88.6,62.6,29.92,West,262,7.8,7.8,42,0.00,,---,0.00,VWS V14.01,2013-06-01 20:15:00,
2013-06-01 16:20:00,89.5,64.7,29.92,WSW,246,6.7,6.7,44,0.00,,---,0.00,VWS V14.01,2013-06-01 20:20:00,
2013-06-01 16:25:00,88.4,62.4,29.92,West,263,9.6,10.1,42,0.00,,---,0.00,VWS V14.01,2013-06-01 20:25:00,
2013-06-01 16:30:00,88.8,64.1,29.92,SSW,203,4.0,5.8,44,0.00,,---,0.00,VWS V14.01,2013-06-01 20:30:00,
2013-06-01 16:35:00,88.4,63.7,29.92,West,266,5.4,8.3,44,0.00,,---,0.00,VWS V14.01,2013-06-01 20:35:00,
2013-06-01 16:40:00,87.1,63.2,29.92,West,263,7.8,7.8,45,0.00,,---,0.00,VWS V14.01,2013-06-01 20:40:00,
2013-06-01 16:45:00,87.7,63.1,29.92,WSW,255,7.4,7.4,44,0.00,,---,0.00,VWS V14.01,2013-06-01 20:45:00,
2013-06-01 16:50:00,88.4,63.7,29.92,WSW,248,3.6,5.4,44,0.00,,---,0.00,VWS V14.01,2013-06-01 20:50:00,
2013-06-01 16:55:00,88.0,62.1,29.92,WSW,253,7.8,10.5,42,0.00,,---,0.00,VWS V14.01,2013-06-01 20:55:00,
2013-06-01 17:00:00,87.0,61.1,29.92,WSW,240,7.8,10.5,42,0.00,,---,0.00,VWS V14.01,2013-06-01 21:00:00,
2013-06-01 17:05:00,87.9,63.2,29.92,WSW,255,6.7,7.4,44,0.00,,---,0.00,VWS V14.01,2013-06-01 21:05:00,
2013-06-01 17:10:00,87.3,61.4,29.92,WSW,237,4.0,4.9,42,0.00,,---,0.00,VWS V14.01,2013-06-01 21:10:00,
2013-06-01 17:15:00,86.1,62.3,29.92,SW,236,7.8,7.8,45,0.00,,---,0.00,VWS V14.01,2013-06-01 21:15:00,
2013-06-01 17:20:00,86.6,62.8,29.92,SW,231,5.8,6.7,45,0.00,,---,0.00,VWS V14.01,2013-06-01 21:20:00,
2013-06-01 17:25:00,87.0,63.1,29.92,SW,234,4.9,8.7,45,0.00,,---,0.00,VWS V14.01,2013-06-01 21:25:00,
2013-06-01 17:30:00,87.5,63.6,29.92,WSW,253,10.5,10.5,45,0.00,,---,0.00,VWS V14.01,2013-06-01 21:30:00,
2013-06-01 17:35:00,87.0,63.1,29.92,WSW,254,6.3,6.3,45,0.00,,---,0.00,VWS V14.01,2013-06-01 21:35:00,
2013-06-01 17:40:00,86.6,62.8,29.92,West,269,4.0,6.9,45,0.00,,---,0.00,VWS V14.01,2013-06-01 21:40:00,
2013-06-01 17:45:00,86.2,62.4,29.92,SW,223,4.0,4.5,45,0.00,,---,0.00,VWS V14.01,2013-06-01 21:45:00,
2013-06-01 17:50:00,85.0,61.3,29.92,WSW,241,9.2,11.0,45,0.00,,---,0.00,VWS V14.01,2013-06-01 21:50:00,
2013-06-01 17:55:00,85.3,61.6,29.92,WSW,238,4.0,4.0,45,0.00,,---,0.00,VWS V14.01,2013-06-01 21:55:00,
2013-06-01 18:00:00,85.2,61.5,29.92,West,268,4.5,4.9,45,0.00,,---,0.00,VWS V14.01,2013-06-01 22:00:00,
2013-06-01 18:05:00,85.2,61.5,29.92,WSW,240,6.9,9.2,45,0.00,,---,0.00,VWS V14.01,2013-06-01 22:05:00,
2013-06-01 18:10:00,84.4,60.8,29.92,WSW,250,6.7,9.6,45,0.00,,---,0.00,VWS V14.01,2013-06-01 22:10:00,
2013-06-01 18:15:00,84.6,61.0,29.92,SSW,211,4.5,6.7,45,0.00,,---,0.00,VWS V14.01,2013-06-01 22:15:00,
2013-06-01 18:20:00,85.0,61.3,29.92,SW,228,6.3,6.9,45,0.00,,---,0.00,VWS V14.01,2013-06-01 22:20:00,
2013-06-01 18:25:00,84.4,60.8,29.92,SW,219,8.7,8.7,45,0.00,,---,0.00,VWS V14.01,2013-06-01 22:25:00,
2013-06-01 18:30:00,84.1,60.5,29.92,West,262,8.7,11.0,45,0.00,,---,0.00,VWS V14.01,2013-06-01 22:30:00,
2013-06-01 18:35:00,83.9,60.9,29.92,WSW,244,9.6,9.6,46,0.00,,---,0.00,VWS V14.01,2013-06-01 22:35:00,
2013-06-01 18:40:00,83.9,60.9,29.92,WSW,252,6.3,7.8,46,0.00,,---,0.00,VWS V14.01,2013-06-01 22:40:00,
2013-06-01 18:45:00,83.9,60.3,29.92,WSW,255,6.7,7.8,45,0.00,,---,0.00,VWS V14.01,2013-06-01 22:45:00,
2013-06-01 18:50:00,83.7,60.8,29.92,SW,227,4.5,4.9,46,0.00,,---,0.00,VWS V14.01,2013-06-01 22:50:00,
2013-06-01 18:55:00,83.4,60.4,29.92,SW,228,3.1,6.3,46,0.00,,---,0.00,VWS V14.01,2013-06-01 22:55:00,
2013-06-01 19:00:00,83.4,60.4,29.92,WSW,256,4.0,6.9,46,0.00,,---,0.00,VWS V14.01,2013-06-01 23:00:00,
2013-06-01 19:05:00,83.2,60.3,29.92,SSW,206,4.5,4.5,46,0.00,,---,0.00,VWS V14.01,2013-06-01 23:05:00,
2013-06-01 19:10:00,82.8,59.9,29.92,SSW,197,2.7,4.5,46,0.00,,---,0.00,VWS V14.01,2013-06-01 23:10:00,
2013-06-01 19:15:00,82.5,59.6,29.92,West,262,7.8,9.6,46,0.00,,---,0.00,VWS V14.01,2013-06-01 23:15:00,
2013-06-01 19:20:00,82.1,60.5,29.92,WSW,254,4.0,4.9,48,0.00,,---,0.00,VWS V14.01,2013-06-01 23:20:00,
2013-06-01 19:25:00,81.7,60.2,29.92,WSW,258,5.4,7.4,48,0.00,,---,0.00,VWS V14.01,2013-06-01 23:25:00,
2013-06-01 19:30:00,81.6,60.0,29.92,West,267,6.7,6.7,48,0.00,,---,0.00,VWS V14.01,2013-06-01 23:30:00,
2013-06-01 19:35:00,81.6,60.6,29.92,WSW,255,5.8,6.3,49,0.00,,---,0.00,VWS V14.01,2013-06-01 23:35:00,
2013-06-01 19:40:00,81.6,60.6,29.92,WSW,249,4.0,4.0,49,0.00,,---,0.00,VWS V14.01,2013-06-01 23:40:00,
2013-06-01 19:45:00,81.4,60.4,29.92,WSW,244,4.5,4.5,49,0.00,,---,0.00,VWS V14.01,2013-06-01 23:45:00,
2013-06-01 19:50:00,81.0,60.1,29.92,West,264,4.0,4.0,49,0.00,,---,0.00,VWS V14.01,2013-06-01 23:50:00,
2013-06-01 19:55:00,80.7,59.8,29.92,WSW,256,6.9,6.9,49,0.00,,---,0.00,VWS V14.01,2013-06-01 23:55:00,
2013-06-01 20:00:00,80.3,59.4,29.92,WSW,238,3.1,3.1,49,0.00,,---,0.00,VWS V14.01,2013-06-02 00:00:00,
2013-06-01 20:05:00,80.1,59.8,29.92,WSW,255,4.5,4.9,50,0.00,,---,0.00,VWS V14.01,2013-06-02 00:05:00,
2013-06-01 20:10:00,79.9,59.7,29.92,WSW,254,3.1,3.1,50,0.00,,---,0.00,VWS V14.01,2013-06-02 00:10:00,
2013-06-01 20:15:00,79.8,59.5,29.92,SW,226,5.4,5.8,50,0.00,,---,0.00,VWS V14.01,2013-06-02 00:15:00,
2013-06-01 20:20:00,79.4,59.7,29.92,WSW,246,4.9,5.8,51,0.00,,---,0.00,VWS V14.01,2013-06-02 00:20:00,
2013-06-01 20:25:00,79.0,59.4,29.92,West,260,3.1,3.1,51,0.00,,---,0.00,VWS V14.01,2013-06-02 00:25:00,
2013-06-01 20:30:00,78.9,59.2,29.92,WSW,246,0.0,0.0,51,0.00,,---,0.00,VWS V14.01,2013-06-02 00:30:00,
2013-06-01 20:35:00,78.5,59.4,29.92,West,271,4.0,4.0,52,0.00,,---,0.00,VWS V14.01,2013-06-02 00:35:00,
2013-06-01 20:40:00,78.1,59.6,29.92,WSW,256,4.5,4.5,53,0.00,,---,0.00,VWS V14.01,2013-06-02 00:40:00,
2013-06-01 20:45:00,78.0,60.0,29.92,West,268,0.0,0.0,54,0.00,,---,0.00,VWS V14.01,2013-06-02 00:45:00,
2013-06-01 20:50:00,77.6,59.7,29.92,West,274,0.0,0.0,54,0.00,,---,0.00,VWS V14.01,2013-06-02 00:50:00,
2013-06-01 20:55:00,77.2,60.8,29.92,West,280,0.0,0.0,57,0.00,,---,0.00,VWS V14.01,2013-06-02 00:55:00,
2013-06-01 21:00:00,76.5,61.6,29.92,WSW,256,2.7,3.1,60,0.00,,---,0.00,VWS V14.01,2013-06-02 01:00:00,
2013-06-01 21:05:00,76.2,61.3,29.92,West,270,3.6,4.0,60,0.00,,---,0.00,VWS V14.01,2013-06-02 01:05:00,
2013-06-01 21:10:00,75.8,60.9,29.92,WSW,244,4.0,4.5,60,0.00,,---,0.00,VWS V14.01,2013-06-02 01:10:00,
2013-06-01 21:15:00,75.6,60.8,29.92,WSW,251,0.0,0.0,60,0.00,,---,0.00,VWS V14.01,2013-06-02 01:15:00,
2013-06-01 21:20:00,75.4,61.1,29.92,WSW,251,0.0,0.0,61,0.00,,---,0.00,VWS V14.01,2013-06-02 01:20:00,
2013-06-01 21:25:00,75.4,61.1,29.92,WSW,251,0.0,0.0,61,0.00,,---,0.00,VWS V14.01,2013-06-02 01:25:00,
2013-06-01 21:30:00,74.9,61.0,29.92,WSW,251,0.0,0.0,62,0.00,,---,0.00,VWS V14.01,2013-06-02 01:30:00,
2013-06-01 21:35:00,74.5,61.1,29.92,WSW,251,0.0,0.0,63,0.00,,---,0.00,VWS V14.01,2013-06-02 01:35:00,
2013-06-01 21:40:00,74.2,61.2,29.92,West,265,0.0,0.0,64,0.00,,---,0.00,VWS V14.01,2013-06-02 01:40:00,
2013-06-01 21:45:00,73.6,61.2,29.92,NW,321,0.0,0.0,65,0.00,,---,0.00,VWS V14.01,2013-06-02 01:45:00,
2013-06-01 21:50:00,73.1,61.5,29.92,West,264,0.0,0.0,67,0.00,,---,0.00,VWS V14.01,2013-06-02 01:50:00,
2013-06-01 21:55:00,72.7,61.2,29.92,NW,314,0.0,0.0,67,0.00,,---,0.00,VWS V14.01,2013-06-02 01:55:00,
2013-06-01 22:00:00,72.7,61.2,29.92,West,277,0.0,0.0,67,0.00,,---,0.00,VWS V14.01,2013-06-02 02:00:00,
2013-06-01 22:05:00,72.7,61.6,29.92,West,261,0.0,0.0,68,0.00,,---,0.00,VWS V14.01,2013-06-02 02:05:00,
2013-06-01 22:10:00,72.4,61.7,29.92,West,267,0.0,0.0,69,0.00,,---,0.00,VWS V14.01,2013-06-02 02:10:00,
2013-06-01 22:15:00,72.2,61.9,29.92,WNW,300,0.0,0.0,70,0.00,,---,0.00,VWS V14.01,2013-06-02 02:15:00,
2013-06-01 22:20:00,71.8,61.9,29.92,WNW,291,0.0,0.0,71,0.00,,---,0.00,VWS V14.01,2013-06-02 02:20:00,
2013-06-01 22:25:00,71.7,61.8,29.92,West,269,0.0,0.0,71,0.00,,---,0.00,VWS V14.01,2013-06-02 02:25:00,
2013-06-01 22:30:00,71.7,61.8,29.92,West,269,0.0,0.0,71,0.00,,---,0.00,VWS V14.01,2013-06-02 02:30:00,
2013-06-01 22:35:00,72.0,62.1,29.89,WSW,238,2.7,3.6,71,0.00,,---,0.00,VWS V14.01,2013-06-02 02:35:00,
2013-06-01 22:40:00,72.0,62.1,29.89,SW,221,0.0,0.0,71,0.00,,---,0.00,VWS V14.01,2013-06-02 02:40:00,
2013-06-01 22:45:00,71.8,61.9,29.89,SW,225,0.0,0.0,71,0.00,,---,0.00,VWS V14.01,2013-06-02 02:45:00,
2013-06-01 22:50:00,71.7,61.8,29.89,SW,222,0.0,0.0,71,0.00,,---,0.00,VWS V14.01,2013-06-02 02:50:00,
2013-06-01 22:55:00,71.5,61.6,29.89,SW,228,0.0,0.0,71,0.00,,---,0.00,VWS V14.01,2013-06-02 02:55:00,
2013-06-01 23:00:00,71.8,61.5,29.89,SSW,211,3.6,4.9,70,0.00,,---,0.00,VWS V14.01,2013-06-02 03:00:00,
2013-06-01 23:05:00,72.6,61.0,29.89,SW,214,0.0,0.0,67,0.00,,---,0.00,VWS V14.01,2013-06-02 03:05:00,
2013-06-01 23:10:00,72.7,60.7,29.89,WSW,249,0.0,2.7,66,0.00,,---,0.00,VWS V14.01,2013-06-02 03:10:00,
2013-06-01 23:15:00,72.7,60.7,29.89,WSW,241,4.5,4.5,66,0.00,,---,0.00,VWS V14.01,2013-06-02 03:15:00,
2013-06-01 23:20:00,72.7,60.7,29.89,SW,233,0.0,0.0,66,0.00,,---,0.00,VWS V14.01,2013-06-02 03:20:00,
2013-06-01 23:25:00,72.2,60.7,29.89,SE,140,4.0,4.0,67,0.00,,---,0.00,VWS V14.01,2013-06-02 03:25:00,
2013-06-01 23:30:00,72.6,60.6,29.89,SW,233,0.0,0.0,66,0.00,,---,0.00,VWS V14.01,2013-06-02 03:30:00,
2013-06-01 23:35:00,72.6,60.6,29.89,SW,230,0.0,0.0,66,0.00,,---,0.00,VWS V14.01,2013-06-02 03:35:00,
2013-06-01 23:40:00,72.6,60.6,29.89,SSW,201,0.0,0.0,66,0.00,,---,0.00,VWS V14.01,2013-06-02 03:40:00,
2013-06-01 23:45:00,72.2,60.2,29.89,SSW,201,0.0,0.0,66,0.00,,---,0.00,VWS V14.01,2013-06-02 03:45:00,
2013-06-01 23:50:00,72.0,60.5,29.89,SSW,199,0.0,0.0,67,0.00,,---,0.00,VWS V14.01,2013-06-02 03:50:00,
2013-06-01 23:55:00,71.7,60.5,29.89,SSW,198,0.0,0.0,68,0.00,,---,0.00,VWS V14.01,2013-06-02 03:55:00,